Погода Красный Чикой

Погода Красный Чикой : погода сейчас, прогноз погоды и архив. Всё, что Вы хотите узнать о погоде Красный Чикой!

Хотите узнать прогноз погоды Красный Чикой? Тогда Вам сюда: Погода Красный Чикой

Поиск расширенной информации на нашем сайте:

Другие новости

Новости СМИ2

Главная страница сайта

Новости сайта

03.07.2017

Напоминаем, что на нашем специализированном сайте Метеоцентр.Азия вы можете получить высокодетализированные автоматические прогнозы погоды по пунктам России, СНГ и мира в авиационном формате (включающие направление и скорость ветра, видимость, явления погоды, количество и форму облачности, нижнюю и верхнюю границу облачности).


Погода Красный Чикой - сегодня

Время (UTC), дата Ветер
(°,м/с) 
Видим.   Явления Облачность Т
(°С)
Тd
(°С)
f(%) Тe
(°С)
Pmin
(гПа)
dP
(гПа)
Po
(мм)
O2
(г/м3)
Тmin Tmax R s Состояние
почвы
03 17.10.18 130 (ЮВ) 20000 м    ясно 
+2.6 -1.7 73 +3  1026.8  -0.5  701  280           
06 17.10.18 180 (Ю) 20000 м    ясно 
+10.2 -1.7 43 +11  1021.8  -2.3  699  272           
09 17.10.18 тихо ()   20000 м    ясно 
+13.6 -1.8 34 +14  1019.6  -0.9  698  268           
12 17.10.18 070 (В) 20000 м    ясно 
+2.5 -1.2 77 +3  1025.1  1.7  700  279    +14.3       
15 17.10.18 тихо ()   20000 м    ясно 
-2.7 -3.3 96 -3  1028.1  700  285           
18 17.10.18 тихо ()   20000 м    ясно 
-5.4 -5.8 97 -5  1030.1  0.9  701  289           
21 17.10.18 тихо ()   20000 м    ясно 
-6.5 -6.8 98 -7  1030.8  0.2  701  290           
00 18.10.18 тихо ()   0500 м  туман  ?/?  
-7 -7.1 99 -7  1032.1  702  291  -7.4         
03 18.10.18 100 (В) 20000 м  {туман}  ясно 
+2.2 -2.2 73 +3  1028.6  -0.2  702  281           
06 18.10.18 110 (В) 20000 м  {туман}  ясно 
+11.6 -2.5 37 +13  1022.4  -2.8  700  271           
09 18.10.18 050 (СВ) 20000 м    ясно 
+14.6 -4.7 26 +16  1020  -1.3  699  268           
12 18.10.18 тихо ()   20000 м    ясно 
+1.7 -3.6 68 +2  1025.4  700  280    +15.3       
15 18.10.18 300 (СЗ) 20000 м    ясно 
-3.6 -5.5 87 -3  1028.3  0.9  700  286           
18 18.10.18 тихо ()   20000 м    ясно 
-5.1 -6.5 90 -5  1029.3  0.4  701  288           
21 18.10.18 тихо ()   20000 м    ясно 
-7.2 -7.8 95 -7  1030  -0.1  700  291           
03 19.10.18 100 (В) 20000 м    ясно 
+2.5 -4 62 +3  1025.3  -1.2  700  280           
06 19.10.18 210 (ЮЗ) 20000 м    ясно 
+10.2 -4.5 35 +11  1019.1  -3.3  697  271           
09 19.10.18 240 (ЮЗ) 20000 м    ясно 
+13.8 -6.7 23 +15  1015.9  -1.9  696  267           
12 19.10.18 190 (Ю) 20000 м    ясно 
-0.6 -5.9 67 1020.8  0.1  696  282    +14.3       
15 19.10.18 300 (СЗ) 20000 м    3/0 верхняя 
[Ci fib]
-4.5 -6.7 85 -4  1022.8  0.5  696  286           
18 19.10.18 тихо ()   20000 м    4/0 верхняя 
[Ci fib]
-5.9 -7.5 88 -6  1022.8  -0.5  696  287           
21 19.10.18 300 (СЗ) 20000 м    4/0 верхняя 
[Ci fib]
-6.7 -7.8 92 -6  1021  -1.9  694  288           
00 20.10.18 тихо ()   20000 м    4/0 средняя, верхняя 
[Ac lent|Ci fib]
-6.9 -7.7 94 -7  1020.1  -0.9  694  287  -7.9         
03 20.10.18 240 (ЮЗ) 20000 м    3/0 верхняя 
[Ci fib]
+1.1 -4.5 66 +2  1016.1  -1  693  278           
06 20.10.18 тихо ()   20000 м    4/4 1000 м 
[Cu med, cong]
+9.4 -6.7 31 +9  1012  -1.2  692  270           
Время (UTC), дата Ветер
(°,м/с) 
Видим.   Явления Облачность Т
(°С)
Тd
(°С)
f(%) Тe
(°С)
Pmin
(гПа)
dP
(гПа)
Po
(мм)
O2
(г/м3)
Тmin Tmax R s Состояние
почвы

Для получения пояснительной информации подведите курсор к названию столбца.

ПОГОДА Красный Чикой - архив

Всё, что Вы хотите узнать о погоде Красный Чикой - удобно и подробно!

Выберите нужную дату (начиная с 1 января 2015* года) и нажмите кнопку "Найти".
Будут отображены архивные сводки погоды по пункту Красный Чикой, начиная с указанной даты.


Отображать данные в формате CSV (для использования в таблицах Excel)


Внимание! Наш архив погоды предназначен исключительно для личного некоммерческого использования в познавательных целях. Если Вам необходимы официальные справки о состоянии погоды (для производственных, юридических, коммерческих и т.п. целей), обращайтесь в органы Росгидромета.

*Примечание: данная дата относится к архиву по метеостанциям СССР (Россия, СНГ, Балтия).
Архив по метеостанциям Зарубежной Европы и Азии (кроме Китая) хранится 10 дней, по другим регионам земного шара (Китай, Африка, Америка, Австралия, Океания) - 1 день.

Красный Чикой - район местоположения метеостанции


Название, широта, долгота, высота метеостанции:
Красный Чикой 50.4°ш. 108.8°д. 771 м над ур. моря [Российская Федерация]

Дополнительная информация

В oтличие oт бoльшинства пoгoдных сайтoв мы публикуем пoдрoбную метеoинфoрмацию в детальнoм прoфессиoнальнoм фoрмате.

Характеристики температуры и влажнoсти вoздуха измеряются на высoте 2 м в тени вдали oт зданий и деревьев.
Скoрoсть ветра измеряется на высoте 10 м (на урoвне рoста челoвека скoрoсть ветра ниже в 1.5-2 раза). Если метеoстанция нахoдится в гoрoде или в лесу, тo скoрoсть ветра занижена на 2-4 м/с пo сравнению с oткрытым местoм. Скoрoсть ветра над акватoриями крупных рек и oзёр, а также на вершинах хoлмoв на 2-5 м/с выше, чем в oбычных услoвиях.
Атмoсфернoе давление в разных тoчках местнoсти мoжет значительнo oтличаться oт давления на метеoстанции, в зависимoсти oт услoвий рельефа (при пoдъёме на 10 м давление пoнижается примернo на 1 мм рт.ст.).